"Pseudo-MPEC" for P20SCeJ

Created 2019 Oct 10 19:07:28 UT using Find_Orb

Click here for an explanation of pseudo-MPECs

 
 Astrometry: 
     P20SCeJ  C2019 10 08E+Astrometryjredacted;JK5EKVclickr4dO2I;/NH.herev==\F52
     P20SCeJ  C2019 10 08vIKfnWVrfor\Eq-Ui#explanationDT,VWG2fP44^0RUF($rnM)JF52
     P20SCeJ  C2019 10 08yeIqs$`vn)2L*DlZX'sB3Ni;Sa/ZD3Y/6P\nkYq9)?(2[`m.]\LuF52
     P20SCeJ KC2019 10 09.38428 05 08 03.32 -11 27 14.2    ~A9NM 21.2 RoNEOCP691
     P20SCeJ KC2019 10 09.38998 05 08 03.47 -11 27 23.1    ~A9NM 21.1 RoNEOCP691
     P20SCeJ KC2019 10 09.39567 05 08 03.61 -11 27 31.1    ~A9NM 21.0 RoNEOCP691

Station data:
(691) Steward Observatory, Kitt Peak - Spacewatch  (N31.962174 W111.600327)
   US/Arizona.  Observer J. V. Scotti. 0.9-m f/3 reflector + CCD.
(F52) Pan-STARRS 2, Haleakala  (N20.707384 W156.255910)  US/Hawaii. 1.8-m
   Ritchey-Chrétien + CCD.

Orbital elements:  P20SCeJ
   Perihelion 2019 May 8.750716 +/- 143 TT = 18:01:01 (JD 2458612.250716)
Epoch 2019 Oct  9.0 TT = JDT 2458765.5   Earth MOID: 0.6137   AutoNEOCP
M  55.69281560 +/- 70               (J2000 ecliptic)
n   0.36341321 +/- 0.28             Peri.  154.41310 +/- 100
a   1.94477293 +/- 1.02             Node   178.60682 +/- 20
e   0.1758915 +/- 0.254             Incl.   27.95186 +/- 11
P   2.71/990.59d           H 18.4   G  0.15   U 11.9  SR
q 1.60270384 +/- 0.651    Q 2.28684203 +/- 28.2
From 6 observations 2019 Oct. 8-9 (19.9 hr); mean residual 0".19
Residuals in arcseconds: 
191008 F52  .25-  .32+    191008 F52  .28+  .21-    191009 691  .04+  .29-    
191008 F52  .02-  .11-    191009 691  .05-  .04+    191009 691  .00   .26+    

Ephemerides (geocentric):
Date (UTC) HH   RA              Dec         delta   r     elong  mag " sig PA
---- -- -- --  -------------   -----------  ------ ------ -----  --- ---- ---
2019 10 10 19  05 08 39.523   -12 02 18.25  1.1261 1.8030 116.0 21.2 25.1  48
2019 10 10 20  05 08 40.529   -12 03 20.70  1.1259 1.8031 116.0 21.2 26.2  48
2019 10 10 21  05 08 41.531   -12 04 23.16  1.1258 1.8032 116.0 21.2 27.4  48
2019 10 10 22  05 08 42.528   -12 05 25.62  1.1256 1.8033 116.1 21.2 28.5  48
2019 10 10 23  05 08 43.521   -12 06 28.07  1.1255 1.8033 116.1 21.2 29.7  49
2019 10 11 00  05 08 44.510   -12 07 30.53  1.1253 1.8034 116.1 21.2 31.0  49
2019 10 11 01  05 08 45.494   -12 08 32.98  1.1252 1.8035 116.1 21.2 32.2  49
2019 10 11 02  05 08 46.474   -12 09 35.44  1.1250 1.8036 116.2 21.2 33.5  49
2019 10 11 03  05 08 47.450   -12 10 37.89  1.1249 1.8037 116.2 21.2 34.8  49
2019 10 11 04  05 08 48.422   -12 11 40.35  1.1247 1.8038 116.2 21.2 36.1  49
2019 10 11 05  05 08 49.390   -12 12 42.80  1.1246 1.8039 116.2 21.2 37.5  49
2019 10 11 06  05 08 50.353   -12 13 45.25  1.1244 1.8040 116.3 21.2 38.9  49
2019 10 11 07  05 08 51.312   -12 14 47.71  1.1243 1.8041 116.3 21.2 40.3  50
2019 10 11 08  05 08 52.267   -12 15 50.16  1.1241 1.8041 116.3 21.2 41.7  50
2019 10 11 09  05 08 53.218   -12 16 52.61  1.1240 1.8042 116.3 21.2 43.1  50
2019 10 11 10  05 08 54.164   -12 17 55.06  1.1238 1.8043 116.3 21.2 44.6  50
2019 10 11 11  05 08 55.106   -12 18 57.51  1.1237 1.8044 116.4 21.2 46.1  50
2019 10 11 12  05 08 56.044   -12 19 59.96  1.1235 1.8045 116.4 21.2 47.6  50
2019 10 11 13  05 08 56.977   -12 21 02.41  1.1234 1.8046 116.4 21.2 49.2  50
2019 10 11 14  05 08 57.907   -12 22 04.86  1.1232 1.8047 116.4 21.2 50.8  50
2019 10 11 15  05 08 58.832   -12 23 07.31  1.1231 1.8048 116.5 21.2 52.4  50
2019 10 11 16  05 08 59.753   -12 24 09.75  1.1229 1.8049 116.5 21.2 54.0  50
2019 10 11 17  05 09 00.669   -12 25 12.20  1.1228 1.8049 116.5 21.2 55.7  51
2019 10 11 18  05 09 01.582   -12 26 14.64  1.1226 1.8050 116.5 21.2 57.4  51
2019 10 11 19  05 09 02.490   -12 27 17.09  1.1225 1.8051 116.6 21.2 59.1  51
2019 10 11 20  05 09 03.394   -12 28 19.53  1.1223 1.8052 116.6 21.2 60.8  51
2019 10 11 21  05 09 04.293   -12 29 21.97  1.1222 1.8053 116.6 21.2 62.6  51
2019 10 11 22  05 09 05.188   -12 30 24.41  1.1220 1.8054 116.6 21.2 64.4  51
2019 10 11 23  05 09 06.079   -12 31 26.84  1.1219 1.8055 116.7 21.2 66.2  51
2019 10 12 00  05 09 06.966   -12 32 29.28  1.1217 1.8056 116.7 21.2 68.0  51
2019 10 12 01  05 09 07.849   -12 33 31.71  1.1216 1.8057 116.7 21.2 69.9  51
2019 10 12 02  05 09 08.727   -12 34 34.15  1.1214 1.8057 116.7 21.2 71.8  51
2019 10 12 03  05 09 09.601   -12 35 36.58  1.1213 1.8058 116.7 21.2 73.7  51
2019 10 12 04  05 09 10.470   -12 36 39.01  1.1211 1.8059 116.8 21.2 75.6  51
2019 10 12 05  05 09 11.336   -12 37 41.43  1.1210 1.8060 116.8 21.2 77.6  51
2019 10 12 06  05 09 12.197   -12 38 43.86  1.1208 1.8061 116.8 21.2 79.6  52
2019 10 12 07  05 09 13.054   -12 39 46.28  1.1207 1.8062 116.8 21.2 81.6  52
2019 10 12 08  05 09 13.906   -12 40 48.70  1.1205 1.8063 116.9 21.2 83.6  52
2019 10 12 09  05 09 14.755   -12 41 51.12  1.1204 1.8064 116.9 21.2 85.7  52
2019 10 12 10  05 09 15.599   -12 42 53.54  1.1202 1.8065 116.9 21.2 87.8  52
2019 10 12 11  05 09 16.438   -12 43 55.95  1.1201 1.8065 116.9 21.2 89.9  52
2019 10 12 12  05 09 17.274   -12 44 58.37  1.1199 1.8066 117.0 21.2 92.0  52
2019 10 12 13  05 09 18.105   -12 46 00.78  1.1198 1.8067 117.0 21.2 94.2  52
2019 10 12 14  05 09 18.932   -12 47 03.19  1.1197 1.8068 117.0 21.2 96.4  52
2019 10 12 15  05 09 19.755   -12 48 05.59  1.1195 1.8069 117.0 21.2 98.6  52
2019 10 12 16  05 09 20.573   -12 49 07.99  1.1194 1.8070 117.1 21.2  101  52
2019 10 12 17  05 09 21.387   -12 50 10.40  1.1192 1.8071 117.1 21.2  103  52
2019 10 12 18  05 09 22.197   -12 51 12.79  1.1191 1.8072 117.1 21.2  105  52